カタログに戻る

STARLINK-37933

運用中通信VLEO
NORAD 69532·PAYLOAD·🇺🇸 United States

打ち上げ Jun 12, 2026 から Cape Canaveral Space Force Station

Loading…

次のパス (今後24時間)

TLE

最新Source: CelesTrak SupGP

元期: Sep 14, 2026, 21:28 UTC

1 69532C 26133AA  26257.89493056  .00046343  00000+0  13693-2 0  2576
2 69532  53.1572 256.2590 0001182  90.2765  85.7261 15.34364257    10

AllMySatでSTARLINK-37933をリアルタイム追跡

Download on the App Store